FW9607 Weather Reports


Display with metric or nautical units.
time (UTC)temp
F
wind
direction
speed
MPH
gust
MPH
rain 1hr
in
rain 24hr
in
rain mn
in
humidity
%
barometer
mb
20260903230920 92 114 5.0 12.0 0.00 0.00 0.00 68 1008.3
20260903225922 92 108 5.0 12.0 0.00 0.00 0.00 66 1008.4
20260903225423 92 106 5.0 12.0 0.00 0.00 0.00 65 1008.3
20260903224422 92 101 6.0 16.0 0.00 0.00 0.00 66 1008.2
20260903223923 93 110 5.0 13.0 0.00 0.00 0.00 66 1008.1
20260903223422 93 146 5.0 13.0 0.00 0.00 0.00 64 1008.1
20260903222922 93 84 6.0 13.0 0.00 0.00 0.00 65 1008.0
20260903222422 93 86 6.0 13.0 0.00 0.00 0.00 64 1008.1
20260903221423 94 128 5.0 12.0 0.00 0.00 0.00 63 1008.1
20260903220918 94 142 5.0 12.0 0.00 0.00 0.00 63 1007.9
20260903220419 95 126 6.0 12.0 0.00 0.00 0.00 62 1008.1
20260903215915 95 88 6.0 13.0 0.00 0.00 0.00 62 1007.9
20260903215413 95 155 5.0 13.0 0.00 0.00 0.00 61 1008.0
20260903214913 95 127 5.0 11.0 0.00 0.00 0.00 60 1007.9
20260903214413 96 132 6.0 12.0 0.00 0.00 0.00 60 1007.8
20260903213913 96 108 5.0 12.0 0.00 0.00 0.00 59 1007.9
20260903212413 97 113 5.0 13.0 0.00 0.00 0.00 60 1007.8
20260903211913 97 139 4.0 12.0 0.00 0.00 0.00 57 1007.7
20260903211414 96 102 5.0 12.0 0.00 0.00 0.00 59 1007.9
20260903210414 97 137 5.0 12.0 0.00 0.00 0.00 58 1007.9
20260903205913 97 106 5.0 10.0 0.00 0.00 0.00 59 1007.8
20260903205413 98 105 5.0 12.0 0.00 0.00 0.00 57 1007.9
20260903204911 98 135 4.0 12.0 0.00 0.00 0.00 58 1007.9
20260903204408 98 128 4.0 9.0 0.00 0.00 0.00 57 1008.0
20260903203408 98 113 5.0 13.0 0.00 0.00 0.00 57 1008.1
20260903202907 98 121 5.0 13.0 0.00 0.00 0.00 57 1008.1
20260903202408 99 146 4.0 9.0 0.00 0.00 0.00 55 1008.2
20260903201908 99 132 4.0 8.0 0.00 0.00 0.00 56 1008.2
20260903201409 99 119 4.0 9.0 0.00 0.00 0.00 55 1008.0
20260903200908 99 99 4.0 9.0 0.00 0.00 0.00 56 1008.1
20260903200408 99 119 4.0 11.0 0.00 0.00 0.00 55 1008.3
20260903195909 100 132 4.0 11.0 0.00 0.00 0.00 54 1008.3
20260903195408 100 172 4.0 9.0 0.00 0.00 0.00 51 1008.3
20260903194908 100 174 4.0 8.0 0.00 0.00 0.00 52 1008.3
20260903194409 99 106 4.0 8.0 0.00 0.00 0.00 52 1008.4
20260903193908 100 112 4.0 10.0 0.00 0.00 0.00 52 1008.6
20260903193406 100 137 4.0 10.0 0.00 0.00 0.00 52 1008.6
20260903192906 100 101 4.0 11.0 0.00 0.00 0.00 50 1008.6
20260903191903 101 118 3.0 8.0 0.00 0.00 0.00 49 1008.7
20260903191402 101 95 3.0 8.0 0.00 0.00 0.00 49 1008.8
20260903190902 101 122 3.0 8.0 0.00 0.00 0.00 48 1008.8
20260903190401 100 190 3.0 8.0 0.00 0.00 0.00 46 1008.8
20260903185900 101 74 3.0 8.0 0.00 0.00 0.00 48 1008.9
20260903185400 101 121 2.0 7.0 0.00 0.00 0.00 45 1008.9
20260903184400 101 125 3.0 9.0 0.00 0.00 0.00 45 1009.1
20260903183900 100 24 3.0 10.0 0.00 0.00 0.00 46 1009.1
20260903182900 100 162 4.0 11.0 0.00 0.00 0.00 46 1009.2
20260903182400 99 181 4.0 11.0 0.00 0.00 0.00 45 1009.4
20260903181358 99 212 4.0 13.0 0.00 0.00 0.00 46 1009.5
20260903180857 100 159 3.0 9.0 0.00 0.00 0.00 47 1009.6
20260903180357 99 153 3.0 10.0 0.00 0.00 0.00 48 1009.7
20260903175859 99 171 3.0 10.0 0.00 0.00 0.00 49 1009.8
20260903174858 98 251 4.0 9.0 0.00 0.00 0.00 50 1010.0
20260903174358 98 209 3.0 8.0 0.00 0.00 0.00 51 1010.0
20260903173858 98 101 3.0 11.0 0.00 0.00 0.00 50 1010.1
20260903173358 98 114 4.0 11.0 0.00 0.00 0.00 51 1010.2
20260903172358 97 176 4.0 12.0 0.00 0.00 0.00 51 1010.4
20260903171858 96 191 6.0 12.0 0.00 0.00 0.00 53 1010.5
20260903171357 96 144 6.0 12.0 0.00 0.00 0.00 53 1010.5
20260903170858 96 206 5.0 11.0 0.00 0.00 0.00 53 1010.6
20260903170411 96 293 5.0 11.0 0.00 0.00 0.00 53 1010.6
20260903165859 96 189 5.0 13.0 0.00 0.00 0.00 54 1010.7
20260903164855 95 185 6.0 14.0 0.00 0.00 0.00 55 1010.8
20260903164356 95 180 6.0 14.0 0.00 0.00 0.00 56 1010.8
20260903163856 95 163 5.0 12.0 0.00 0.00 0.00 56 1010.9
20260903163355 95 196 4.0 10.0 0.00 0.00 0.00 56 1010.9
20260903162856 95 186 4.0 12.0 0.00 0.00 0.00 56 1010.9
20260903162355 94 141 6.0 12.0 0.00 0.00 0.00 57 1010.9
20260903161858 93 276 6.0 12.0 0.00 0.00 0.00 58 1011.1
20260903161356 94 180 5.0 12.0 0.00 0.00 0.00 58 1011.1
20260903160856 94 185 5.0 13.0 0.00 0.00 0.00 57 1011.0
20260903160356 93 183 5.0 13.0 0.00 0.00 0.00 59 1011.0
20260903155856 93 178 4.0 11.0 0.00 0.00 0.00 58 1011.0
20260903155356 92 182 4.0 11.0 0.00 0.00 0.00 60 1011.0
20260903154856 92 173 5.0 12.0 0.00 0.00 0.00 61 1011.1
20260903154357 91 129 6.0 13.0 0.00 0.00 0.00 63 1011.1
20260903153857 91 163 7.0 16.0 0.00 0.00 0.00 63 1011.1
20260903153354 90 167 6.0 16.0 0.00 0.00 0.00 64 1011.2
20260903152354 90 150 6.0 16.0 0.00 0.00 0.00 65 1011.2
20260903151854 90 180 6.0 16.0 0.00 0.00 0.00 67 1011.3
20260903151354 89 190 7.0 14.0 0.00 0.00 0.00 66 1011.3
20260903150851 89 194 6.0 14.0 0.00 0.00 0.00 69 1011.3
20260903150352 90 192 4.0 10.0 0.00 0.00 0.00 67 1011.3
20260903145851 89 172 4.0 11.0 0.00 0.00 0.00 69 1011.4
20260903145351 89 153 4.0 11.0 0.00 0.00 0.00 69 1011.4
20260903144852 89 125 5.0 12.0 0.00 0.00 0.00 71 1011.5
20260903144351 88 121 6.0 15.0 0.00 0.00 0.00 73 1011.5
20260903143852 88 42 6.0 15.0 0.00 0.00 0.00 73 1011.5
20260903143351 87 139 5.0 12.0 0.00 0.00 0.00 75 1011.6
20260903142851 87 144 5.0 13.0 0.00 0.00 0.00 75 1011.6
20260903142349 87 134 6.0 13.0 0.00 0.00 0.00 78 1011.6
20260903141346 87 174 6.0 15.0 0.00 0.00 0.00 79 1011.5
20260903140346 86 184 3.0 9.0 0.00 0.00 0.00 80 1011.6
20260903135845 86 153 4.0 9.0 0.00 0.00 0.00 81 1011.6
20260903135346 86 181 3.0 9.0 0.00 0.00 0.00 82 1011.6
20260903134846 86 175 3.0 8.0 0.00 0.00 0.00 82 1011.7
20260903133843 85 172 3.0 6.0 0.00 0.00 0.00 83 1011.8
20260903132843 85 129 3.0 5.0 0.00 0.00 0.00 85 1011.7
20260903132347 84 175 3.0 5.0 0.00 0.00 0.00 85 1011.7
20260903131842 84 176 3.0 6.0 0.00 0.00 0.00 86 1011.6
20260903130843 83 167 3.0 4.0 0.00 0.00 0.00 87 1011.5
20260903130344 83 162 3.0 4.0 0.00 0.00 0.00 88 1011.5
20260903125842 82 165 3.0 4.0 0.00 0.00 0.00 89 1011.5
20260903125331 82 143 3.0 4.0 0.00 0.00 0.00 89 1011.5
20260903124829 82 150 3.0 4.0 0.00 0.00 0.00 90 1011.4
20260903124331 81 150 3.0 4.0 0.00 0.00 0.00 90 1011.3
20260903123829 81 158 3.0 4.0 0.00 0.00 0.00 90 1011.3
20260903123331 81 155 2.0 3.0 0.00 0.00 0.00 90 1011.3
20260903122829 81 165 2.0 4.0 0.00 0.00 0.00 90 1011.3
20260903121829 81 175 2.0 4.0 0.00 0.00 0.00 90 1011.2
20260903120829 81 158 3.0 4.0 0.00 0.00 0.00 90 1011.2
20260903120333 81 172 2.0 4.0 0.00 0.00 0.00 90 1011.2
20260903115829 81 173 3.0 4.0 0.00 0.00 0.00 90 1011.2
20260903114305 81 172 3.0 4.0 0.00 0.00 0.00 90 1011.1
20260903113801 81 135 3.0 4.0 0.00 0.00 0.00 90 1011.1
20260903113305 81 177 3.0 4.0 0.00 0.00 0.00 90 1011.1
20260903112801 81 166 2.0 3.0 0.00 0.00 0.00 90 1011.1
20260903111802 81 157 2.0 3.0 0.00 0.00 0.00 90 1011.3
20260903111305 82 177 2.0 3.0 0.00 0.00 0.00 90 1011.4
20260903110802 82 172 2.0 3.0 0.00 0.00 0.00 90 1011.3
20260903110305 82 148 2.0 3.0 0.00 0.00 0.00 89 1011.3
20260903105306 82 167 2.0 3.0 0.00 0.00 0.00 89 1011.5
20260903104800 82 164 2.0 3.0 0.00 0.00 0.00 89 1011.5
20260903103745 82 190 2.0 3.0 0.00 0.00 0.00 89 1011.4
20260903103231 82 171 2.0 3.0 0.00 0.00 0.00 89 1011.5
20260903102731 82 154 2.0 3.0 0.00 0.00 0.00 89 1011.5
20260903102230 82 156 2.0 3.0 0.00 0.00 0.00 89 1011.5
20260903101731 82 163 2.0 3.0 0.00 0.00 0.00 89 1011.5
20260903101231 82 152 2.0 3.0 0.00 0.00 0.00 89 1011.5
20260903100731 82 163 2.0 3.0 0.00 0.00 0.00 89 1011.4
20260903100231 82 158 2.0 3.0 0.00 0.00 0.00 89 1011.4
20260903095731 82 152 2.0 3.0 0.00 0.00 0.00 88 1011.4
20260903095232 82 158 2.0 3.0 0.00 0.00 0.00 88 1011.4
20260903094731 82 151 2.0 3.0 0.00 0.00 0.00 88 1011.4
20260903094232 83 118 2.0 2.0 0.00 0.00 0.00 88 1011.5
20260903093732 83 202 2.0 2.0 0.00 0.00 0.00 88 1011.5
20260903093222 83 151 2.0 3.0 0.00 0.00 0.00 88 1011.6
20260903092716 83 149 1.0 3.0 0.00 0.00 0.00 88 1011.5
20260903092202 83 113 1.0 2.0 0.00 0.00 0.00 88 1011.5
20260903091707 83 113 1.0 2.0 0.00 0.00 0.00 88 1011.5
20260903091147 83 143 1.0 2.0 0.00 0.00 0.00 88 1011.5
20260903090646 83 140 1.0 3.0 0.00 0.00 0.00 87 1011.5
20260903085652 83 170 2.0 4.0 0.00 0.00 0.00 87 1011.4
20260903085149 83 154 2.0 4.0 0.00 0.00 0.00 87 1011.4
20260903084652 83 191 2.0 3.0 0.00 0.00 0.00 87 1011.5
20260903084149 83 184 2.0 4.0 0.00 0.00 0.00 87 1011.5
20260903083648 83 177 3.0 6.0 0.00 0.00 0.00 87 1011.4
20260903083147 83 174 4.0 6.0 0.00 0.00 0.00 87 1011.3
20260903082650 83 185 4.0 9.0 0.00 0.00 0.00 87 1011.4
20260903082148 83 180 5.0 9.0 0.00 0.00 0.00 87 1011.4
20260903081650 83 185 5.0 8.0 0.00 0.00 0.00 87 1011.4
20260903081147 84 181 4.0 8.0 0.00 0.00 0.00 86 1011.4
20260903080646 84 164 4.0 8.0 0.00 0.00 0.00 86 1011.4
20260903080146 84 192 4.0 8.0 0.00 0.00 0.00 86 1011.5
20260903075648 84 200 5.0 9.0 0.00 0.00 0.00 86 1011.4
20260903075148 84 177 5.0 9.0 0.00 0.00 0.00 86 1011.4
20260903074146 84 147 5.0 9.0 0.00 0.00 0.00 86 1011.4
20260903073648 84 167 5.0 9.0 0.00 0.00 0.00 86 1011.4
20260903073146 84 178 4.0 7.0 0.00 0.00 0.00 85 1011.4
20260903072647 84 188 4.0 9.0 0.00 0.00 0.00 85 1011.4
20260903071645 85 186 5.0 10.0 0.00 0.00 0.00 85 1011.4
20260903071142 85 178 4.0 9.0 0.00 0.00 0.00 84 1011.4
20260903070645 85 184 5.0 8.0 0.00 0.00 0.00 84 1011.4
20260903070142 85 194 5.0 12.0 0.00 0.00 0.00 84 1011.4
20260903065639 85 174 5.0 12.0 0.00 0.00 0.00 84 1011.3
20260903065136 85 165 4.0 9.0 0.00 0.00 0.00 84 1011.3
20260903064636 85 184 4.0 9.0 0.00 0.00 0.00 84 1011.4
20260903064139 85 164 4.0 9.0 0.00 0.00 0.00 84 1011.5
20260903063637 85 159 3.0 6.0 0.00 0.00 0.00 84 1011.6
20260903063134 85 179 3.0 4.0 0.00 0.00 0.00 84 1011.7
20260903062635 85 169 3.0 5.0 0.00 0.00 0.00 83 1011.7
20260903062134 85 173 3.0 5.0 0.00 0.00 0.00 83 1011.8
20260903061634 85 184 2.0 6.0 0.00 0.00 0.00 83 1011.9
20260903060626 85 157 3.0 6.0 0.00 0.00 0.00 83 1011.8
20260903060126 85 156 4.0 10.0 0.00 0.00 0.00 83 1011.9
20260903055627 85 170 4.0 10.0 0.00 0.00 0.00 83 1011.8
20260903055126 85 185 4.0 10.0 0.00 0.00 0.00 83 1011.8
20260903054626 85 163 4.0 9.0 0.00 0.00 0.00 82 1011.8
20260903054127 85 151 4.0 10.0 0.00 0.00 0.00 82 1011.7
20260903053625 85 171 5.0 10.0 0.00 0.00 0.00 82 1011.7
20260903053125 85 168 5.0 10.0 0.00 0.00 0.00 82 1011.7
20260903052626 85 180 4.0 9.0 0.00 0.00 0.00 82 1011.7
20260903052120 85 129 4.0 8.0 0.00 0.00 0.00 82 1011.7
20260903051120 85 155 3.0 7.0 0.00 0.00 0.00 82 1011.7
20260903050620 85 168 3.0 7.0 0.00 0.00 0.00 82 1011.7
20260903050120 86 152 3.0 7.0 0.00 0.00 0.00 82 1011.6
20260903045620 86 152 3.0 5.0 0.00 0.00 0.00 82 1011.5
20260903045120 86 150 3.0 9.0 0.00 0.00 0.00 82 1011.6
20260903044620 86 178 3.0 9.0 0.00 0.00 0.00 81 1011.7
20260903044124 86 127 3.0 5.0 0.00 0.00 0.00 81 1011.7
20260903043620 86 145 3.0 9.0 0.00 0.00 0.00 81 1011.7
20260903043108 86 156 4.0 9.0 0.00 0.00 0.00 81 1011.7
20260903042608 86 175 3.0 6.0 0.00 0.00 0.00 81 1011.7
20260903041608 86 90 3.0 7.0 0.00 0.00 0.00 81 1011.8
20260903041110 86 132 3.0 7.0 0.00 0.00 0.00 81 1011.8
20260903040605 86 104 3.0 6.0 0.00 0.00 0.00 81 1011.8
20260903040118 86 144 3.0 7.0 0.00 0.00 0.00 81 1011.7
20260903035557 86 160 3.0 7.0 0.00 0.00 0.00 81 1011.7
20260903035108 86 162 3.0 7.0 0.00 0.00 0.00 81 1011.7
20260903034551 86 201 3.0 5.0 0.00 0.00 0.00 81 1011.6
20260903033552 86 134 3.0 7.0 0.00 0.00 0.00 81 1011.5
20260903033052 86 160 3.0 7.0 0.00 0.00 0.00 81 1011.5
20260903032550 86 208 3.0 7.0 0.00 0.00 0.00 81 1011.5
20260903032051 86 180 3.0 7.0 0.00 0.00 0.00 81 1011.4
20260903031550 86 161 3.0 7.0 0.00 0.00 0.00 81 1011.4
20260903031050 86 129 3.0 8.0 0.00 0.00 0.00 81 1011.3
20260903030549 86 157 3.0 8.0 0.00 0.00 0.00 81 1011.2
20260903030049 86 83 3.0 10.0 0.00 0.00 0.00 81 1011.1
20260903025546 86 163 3.0 10.0 0.00 0.00 0.00 81 1011.0
20260903025046 86 75 3.0 8.0 0.00 0.00 0.00 80 1010.9
20260903024546 86 172 3.0 8.0 0.00 0.00 0.00 80 1010.7
20260903024046 87 151 3.0 9.0 0.00 0.00 0.00 80 1010.8
20260903023546 87 207 3.0 9.0 0.00 0.00 0.00 80 1010.6
20260903023045 87 130 4.0 9.0 0.00 0.00 0.00 80 1010.5
20260903022546 87 167 3.0 8.0 0.00 0.00 0.00 80 1010.5
20260903022046 87 180 4.0 12.0 0.00 0.00 0.00 80 1010.4
20260903021046 87 109 4.0 9.0 0.00 0.00 0.00 79 1010.4
20260903020546 87 139 3.0 8.0 0.00 0.00 0.00 79 1010.3
20260903020046 87 132 4.0 11.0 0.00 0.00 0.00 78 1010.2
20260903015546 87 198 4.0 11.0 0.00 0.00 0.00 78 1010.1
20260903015044 87 96 4.0 11.0 0.00 0.00 0.00 78 1010.0
20260903014540 87 129 3.0 9.0 0.00 0.00 0.00 78 1010.0
20260903014041 87 158 4.0 9.0 0.00 0.00 0.00 78 1009.9
20260903013541 87 104 4.0 9.0 0.00 0.00 0.00 78 1010.0
20260903013040 88 112 3.0 8.0 0.00 0.00 0.00 78 1009.9
20260903011541 88 122 4.0 10.0 0.00 0.00 0.00 77 1009.7
20260903011041 88 126 4.0 10.0 0.00 0.00 0.00 77 1009.7
20260903010541 88 141 4.0 10.0 0.00 0.00 0.00 77 1009.6
20260903010041 88 98 4.0 10.0 0.00 0.00 0.00 77 1009.6
20260903005542 89 124 4.0 9.0 0.00 0.00 0.00 76 1009.6
20260903005041 89 92 4.0 9.0 0.00 0.00 0.00 76 1009.6
20260903004541 89 168 5.0 13.0 0.00 0.00 0.00 75 1009.5
20260903003541 90 117 3.0 7.0 0.00 0.00 0.00 73 1009.6
20260903003039 90 160 4.0 13.0 0.00 0.00 0.00 73 1009.6
20260903002537 90 125 5.0 13.0 0.00 0.00 0.00 73 1009.5
20260903002038 90 109 5.0 13.0 0.00 0.00 0.00 73 1009.4
20260903001538 90 133 5.0 10.0 0.00 0.00 0.00 72 1009.6
20260903001037 91 260 5.0 11.0 0.00 0.00 0.00 71 1009.6
20260903000035 91 94 5.0 11.0 0.00 0.00 0.00 70 1009.5
20260902235534 91 116 5.0 11.0 0.00 0.00 0.00 69 1009.5
20260902235034 91 73 5.0 10.0 0.00 0.00 0.00 69 1009.5
20260902233534 92 94 5.0 12.0 0.00 0.00 0.00 67 1009.5
20260902233033 92 114 5.0 12.0 0.00 0.00 0.00 67 1009.5
20260902232034 92 115 6.0 13.0 0.00 0.00 0.00 66 1009.5